Location: Memmingen
(47.9830°N, 10.1733°E)
Time: 13:55:00
(UTC+02:00)

ELECTRON R/B - Visible Passes

Search period start: 20 May 2018 00:00
Search period end: 30 May 2018 00:00
Orbit: 285 x 480 km, 82.9° (Epoch: 19 May)

Date Brightness Start Highest point End Pass type
(mag) Time Alt. Az. Time Alt. Az. Time Alt. Az.
20 May 5.1 22:26:39 10° NNW 22:29:03 49° W 22:30:40 17° SSW visible
21 May 7.6 23:05:01 10° W 23:05:18 10° W 23:05:36 10° W visible
22 May 4.8 22:06:43 10° NNW 22:09:08 59° W 22:11:32 10° S visible
23 May 7.4 22:44:18 10° WNW 22:45:17 12° W 22:46:15 10° WSW visible
24 May 4.5 21:46:30 10° NNW 21:48:55 73° W 21:51:22 10° S visible
25 May 7.4 22:23:37 10° NW 22:24:58 14° W 22:26:18 10° WSW visible
27 May 7.3 22:02:41 10° NW 22:04:21 16° W 22:06:00 10° SW visible
